Weather History for Puyallup, WA

Change the Weather History Date:

Tuesday, March 18, 2014

  Actual Average (KTCM) Record (KTCM)
Temperature  
Mean Temperature 42 °F -  
Max Temperature 53 °F 52 °F 69 °F (1988)
Min Temperature 32 °F 35 °F 22 °F (1965)
Degree Days  
Heating Degree Days 22    
Moisture  
Dew Point 39 °F    
Average Humidity 87    
Maximum Humidity 100    
Minimum Humidity 67    
Precipitation  
Precipitation 0.00 in - - ()
Sea Level Pressure  
Sea Level Pressure 30.28 in    
Wind  
Wind Speed 0 mph (WSW)    
Max Wind Speed 7 mph    
Max Gust Speed -    
Visibility 10 miles    
Events      
Averages and records for this station are not official NWS values.
T = Trace of Precipitation, MM = Missing Value Source: NWS Daily Summary

Daily Weather History Graph

Daily Weather History Graph

Search for Another Location

Airport:

Trip Planner

Search our weather history database for the weather conditions in past years. The results will help you decide how hot, cold, wet, or windy it might be!

Date:

Astronomy

Mar. 18, 2014 Rise Set
Actual Time 7:15 AM PDT 7:19 PM PDT
Civil Twilight 6:45 AM PDT 7:49 PM PDT
Nautical Twilight 6:09 AM PDT 8:25 PM PDT
Astronomical Twilight 5:33 AM PDT 9:02 PM PDT
Moon 9:53 PM PDT 7:59 AM PDT
Length of Visible Light 13h 04m
Length of Day
12h 03m
Waning Gibbous, 96% of the Moon is Illuminated
Mar 18
Waning Gibbous
Mar 23
Last Quarter
Mar 30
New
Apr 7
First Quarter
Apr 15
Full

Hourly Weather History & Observations

Time (PDT) Temp. Dew Point Humidity Pressure Visibility Wind Dir Wind Speed Gust Speed Precip Events Conditions
12:15 AM 35.6 °F 32.0 °F 87% 30.35 in 10.0 mi Calm Calm - N/A   Unknown
12:35 AM 35.6 °F 32.0 °F 87% 30.36 in 10.0 mi Calm Calm - N/A   Unknown
12:55 AM 33.8 °F 32.0 °F 93% 30.35 in 10.0 mi Calm Calm - N/A   Unknown
1:15 AM 33.8 °F 32.0 °F 93% 30.35 in 10.0 mi Calm Calm - N/A   Unknown
1:35 AM 32.0 °F 32.0 °F 100% 30.35 in 10.0 mi Calm Calm - N/A   Unknown
1:55 AM 32.0 °F 32.0 °F 100% 30.34 in 10.0 mi Calm Calm - N/A   Unknown
2:15 AM 32.0 °F 32.0 °F 100% 30.35 in 10.0 mi Calm Calm - N/A   Unknown
2:35 AM 32.0 °F 32.0 °F 100% 30.35 in 10.0 mi Calm Calm - N/A   Unknown
2:55 AM 33.8 °F 32.0 °F 93% 30.35 in 10.0 mi Calm Calm - N/A   Unknown
3:15 AM 33.8 °F 32.0 °F 93% 30.35 in 10.0 mi Calm Calm - N/A   Unknown
3:35 AM 33.8 °F 32.0 °F 93% 30.35 in 10.0 mi Calm Calm - N/A   Unknown
3:55 AM 33.8 °F 32.0 °F 93% 30.34 in 10.0 mi Calm Calm - N/A   Unknown
4:15 AM 35.6 °F 32.0 °F 87% 30.34 in 10.0 mi Calm Calm - N/A   Unknown
4:35 AM 35.6 °F 32.0 °F 87% 30.33 in 10.0 mi Calm Calm - N/A   Unknown
4:55 AM 33.8 °F 32.0 °F 93% 30.33 in 10.0 mi Calm Calm - N/A   Unknown
5:15 AM 33.8 °F 33.8 °F 100% 30.32 in 10.0 mi Calm Calm - N/A   Unknown
5:35 AM 33.8 °F 33.8 °F 100% 30.32 in 10.0 mi Calm Calm - N/A   Unknown
5:55 AM 33.8 °F 33.8 °F 100% 30.32 in 10.0 mi Calm Calm - N/A   Unknown
6:15 AM 33.8 °F 33.8 °F 100% 30.32 in 10.0 mi Calm Calm - N/A   Unknown
6:35 AM 35.6 °F 35.6 °F 100% 30.32 in 10.0 mi Calm Calm - N/A   Unknown
6:55 AM 35.6 °F 35.6 °F 100% 30.31 in 10.0 mi Calm Calm - N/A   Unknown
7:15 AM 35.6 °F 35.6 °F 100% 30.31 in 10.0 mi Calm Calm - N/A   Unknown
7:35 AM 35.6 °F 35.6 °F 100% 30.31 in 10.0 mi Calm Calm - N/A   Unknown
7:55 AM 35.6 °F 35.6 °F 100% 30.31 in 10.0 mi Calm Calm - N/A   Unknown
8:15 AM 37.4 °F 35.6 °F 93% 30.31 in 10.0 mi Calm Calm - N/A   Unknown
8:35 AM 39.2 °F 35.6 °F 87% 30.31 in 10.0 mi Calm Calm - N/A   Unknown
8:55 AM 39.2 °F 35.6 °F 87% 30.31 in 10.0 mi Calm Calm - N/A   Unknown
9:15 AM 39.2 °F 35.6 °F 87% 30.32 in 10.0 mi Calm Calm - N/A   Unknown
9:35 AM 41.0 °F 35.6 °F 81% 30.31 in 10.0 mi Calm Calm - N/A   Unknown
9:55 AM 42.8 °F 35.6 °F 76% 30.32 in 10.0 mi Calm Calm - N/A   Unknown
10:15 AM 42.8 °F 35.6 °F 76% 30.32 in 10.0 mi Calm Calm - N/A   Unknown
10:35 AM 44.6 °F 37.4 °F 76% 30.32 in 9.0 mi Calm Calm - N/A   Unknown
10:55 AM 46.4 °F 37.4 °F 71% 30.32 in 10.0 mi Calm Calm - N/A   Unknown
11:15 AM 48.2 °F 39.2 °F 71% 30.32 in 10.0 mi Calm Calm - N/A   Unknown
11:35 AM 48.2 °F 39.2 °F 71% 30.32 in 10.0 mi South 3.5 mph - N/A   Unknown
11:55 AM 48.2 °F 39.2 °F 71% 30.32 in 10.0 mi Calm Calm - N/A   Unknown
12:15 PM 48.2 °F 41.0 °F 76% 30.32 in 10.0 mi Calm Calm - N/A   Unknown
12:35 PM 48.2 °F 39.2 °F 71% 30.32 in 10.0 mi Calm Calm - N/A   Unknown
12:55 PM 48.2 °F 41.0 °F 76% 30.31 in 10.0 mi WNW 6.9 mph - N/A   Unknown
1:15 PM 48.2 °F 42.8 °F 82% 30.31 in 9.0 mi West 3.5 mph - N/A   Unknown
1:35 PM 48.2 °F 44.6 °F 87% 30.31 in 10.0 mi Calm Calm - N/A   Unknown
1:55 PM 48.2 °F 44.6 °F 87% 30.30 in 10.0 mi Calm Calm - N/A   Unknown
2:15 PM 50.0 °F 44.6 °F 82% 30.29 in 10.0 mi SSW 3.5 mph - N/A   Unknown
2:35 PM 48.2 °F 42.8 °F 82% 30.29 in 10.0 mi WSW 4.6 mph - N/A   Unknown
2:55 PM 48.2 °F 44.6 °F 87% 30.28 in 10.0 mi Calm Calm - N/A   Unknown
3:15 PM 50.0 °F 42.8 °F 76% 30.27 in 10.0 mi West 3.5 mph - N/A   Unknown
3:35 PM 53.6 °F 44.6 °F 72% 30.26 in 10.0 mi SW 6.9 mph - N/A   Unknown
3:55 PM 53.6 °F 44.6 °F 72% 30.26 in 10.0 mi SW 3.5 mph - N/A   Unknown
4:15 PM 51.8 °F 44.6 °F 76% 30.25 in 10.0 mi Calm Calm - N/A   Unknown
4:35 PM 53.6 °F 42.8 °F 67% 30.24 in 10.0 mi SW 3.5 mph - N/A   Unknown
4:55 PM 51.8 °F 42.8 °F 71% 30.24 in 10.0 mi Calm Calm - N/A   Unknown
5:15 PM 51.8 °F 41.0 °F 67% 30.24 in 10.0 mi Calm Calm - N/A   Unknown
5:35 PM 51.8 °F 41.0 °F 67% 30.23 in 10.0 mi Calm Calm - N/A   Unknown
5:55 PM 50.0 °F 44.6 °F 82% 30.23 in 10.0 mi North 3.5 mph - N/A   Unknown
6:15 PM 50.0 °F 44.6 °F 82% 30.23 in 10.0 mi NNW 4.6 mph - N/A   Unknown
6:35 PM 50.0 °F 44.6 °F 82% 30.22 in 10.0 mi Calm Calm - N/A   Unknown
6:55 PM 48.2 °F 44.6 °F 87% 30.22 in 10.0 mi Calm Calm - N/A   Unknown
7:15 PM 48.2 °F 44.6 °F 87% 30.22 in 10.0 mi Calm Calm - N/A   Unknown
7:35 PM 48.2 °F 44.6 °F 87% 30.22 in 10.0 mi Calm Calm - N/A   Unknown
7:55 PM 46.4 °F 44.6 °F 93% 30.22 in 10.0 mi Calm Calm - N/A   Unknown
8:15 PM 46.4 °F 44.6 °F 93% 30.22 in 10.0 mi Calm Calm - N/A   Unknown
8:35 PM 46.4 °F 44.6 °F 93% 30.21 in 10.0 mi Calm Calm - N/A   Unknown
8:55 PM 46.4 °F 44.6 °F 93% 30.21 in 10.0 mi Calm Calm - N/A   Unknown
9:15 PM 46.4 °F 44.6 °F 93% 30.21 in 10.0 mi Calm Calm - N/A   Unknown
9:35 PM 46.4 °F 44.6 °F 93% 30.20 in 10.0 mi Calm Calm - N/A   Unknown
9:55 PM 46.4 °F 44.6 °F 93% 30.20 in 10.0 mi Calm Calm - N/A   Unknown
10:15 PM 46.4 °F 44.6 °F 93% 30.19 in 10.0 mi Calm Calm - N/A   Unknown
10:35 PM 46.4 °F 44.6 °F 93% 30.20 in 10.0 mi Calm Calm - N/A   Unknown
10:55 PM 46.4 °F 44.6 °F 93% 30.19 in 10.0 mi Calm Calm - N/A   Unknown
11:15 PM 44.6 °F 44.6 °F 100% 30.19 in 10.0 mi Calm Calm - N/A   Unknown
11:35 PM 44.6 °F 44.6 °F 100% 30.19 in 10.0 mi Calm Calm - N/A   Unknown
11:55 PM 44.6 °F 44.6 °F 100% 30.19 in 10.0 mi Calm Calm - N/A   Unknown